DW6123 Weather Reports


time (UTC)temp
F
wind
direction
speed
knots
gust
knots
rain 1hr
in
rain 24hr
in
rain mn
in
humidity
%
barometer
mb
20260505112059 54 172 0.0 0.0 0.00 0.00 0.00 84 1014.8
20260505111557 54 172 0.0 0.9 0.00 0.00 0.00 84 1014.8
20260505111058 54 171 0.0 0.9 0.00 0.00 0.00 84 1014.7
20260505110555 54 172 0.0 0.9 0.00 0.00 0.00 84 1014.7
20260505101547 55 140 0.0 0.0 0.00 0.00 0.00 83 1014.3
20260505101047 55 140 0.0 0.9 0.00 0.00 0.00 84 1014.3
20260505100544 55 134 0.0 0.9 0.00 0.00 0.00 83 1014.3
20260505100043 55 134 0.0 0.9 0.00 0.00 0.00 83 1014.3
20260505095041 55 134 0.0 1.7 0.00 0.00 0.00 83 1014.3
20260505094541 55 165 0.0 0.9 0.00 0.00 0.00 83 1014.3
20260505094035 55 165 0.0 0.9 0.00 0.00 0.00 83 1014.3
20260505093535 55 167 0.0 0.9 0.00 0.00 0.00 83 1014.2
20260505093035 55 164 0.0 0.9 0.00 0.00 0.00 83 1014.2
20260505092535 55 164 0.0 0.9 0.00 0.00 0.00 82 1014.1
20260505091535 55 167 0.0 0.9 0.00 0.00 0.00 82 1014.1
20260505091035 55 180 0.0 0.0 0.00 0.00 0.00 82 1014.0
20260505090533 56 183 0.0 0.0 0.00 0.00 0.00 82 1014.0
20260505090030 56 190 0.0 0.0 0.00 0.00 0.00 82 1014.0
20260505085530 56 204 0.0 1.7 0.00 0.00 0.00 82 1013.9
20260505085030 56 204 0.0 2.6 0.00 0.00 0.00 81 1013.9
20260505084022 56 145 0.0 0.9 0.00 0.00 0.00 81 1013.8
20260505083515 56 162 0.0 0.0 0.00 0.00 0.00 81 1013.8
20260505083014 56 172 0.0 0.0 0.00 0.00 0.00 81 1013.8
20260505082507 56 172 0.0 0.0 0.00 0.00 0.00 82 1013.7
20260505082005 56 172 0.0 0.0 0.00 0.00 0.00 82 1013.8
20260505081005 56 172 0.0 0.0 0.00 0.00 0.00 82 1013.7
20260505080503 56 172 0.0 0.0 0.00 0.00 0.00 82 1013.6
20260505080003 56 172 0.0 0.0 0.00 0.00 0.00 82 1013.6
20260505074501 56 172 0.0 0.0 0.00 0.00 0.00 82 1013.4
20260505073959 56 172 0.0 0.9 0.00 0.00 0.00 82 1013.3
20260505073458 56 172 0.0 0.9 0.00 0.00 0.00 82 1013.3
20260505072959 56 172 0.0 0.0 0.00 0.00 0.00 82 1013.2
20260505072458 56 172 0.0 0.0 0.00 0.00 0.00 81 1013.1
20260505071951 57 172 0.0 2.6 0.00 0.00 0.00 81 1013.1
20260505070949 57 161 0.0 0.9 0.00 0.00 0.00 80 1013.0
20260505070449 57 161 0.0 0.9 0.00 0.00 0.00 80 1013.0
20260505065949 58 188 0.0 0.9 0.00 0.00 0.00 80 1013.0
20260505065445 58 188 0.0 0.9 0.00 0.00 0.00 80 1013.0
20260505064943 58 161 0.0 0.0 0.00 0.00 0.00 79 1012.8
20260505064444 58 161 0.0 0.9 0.00 0.00 0.00 79 1012.8
20260505063941 59 161 0.0 1.7 0.00 0.00 0.00 79 1012.7
20260505063441 59 161 0.0 2.6 0.00 0.00 0.00 79 1012.6
20260505061935 60 169 0.0 1.7 0.00 0.00 0.00 78 1012.4
20260505060934 60 153 0.0 2.6 0.00 0.00 0.00 77 1012.2
20260505060434 61 148 0.0 2.6 0.00 0.00 0.00 77 1012.2
20260505055932 61 179 0.9 3.5 0.00 0.00 0.00 76 1012.1
20260505055431 61 128 0.9 3.5 0.00 0.00 0.00 76 1012.1
20260505054928 62 188 0.0 1.7 0.00 0.00 0.00 75 1012.2
20260505053924 62 167 0.0 0.9 0.00 0.00 0.00 76 1012.1
20260505053425 62 207 0.0 1.7 0.00 0.00 0.00 76 1012.0
20260505051920 62 179 0.0 0.0 0.00 0.00 0.00 75 1011.8
20260505051418 63 179 0.0 0.0 0.00 0.00 0.00 75 1011.8
20260505050915 63 200 0.0 0.0 0.00 0.00 0.00 75 1011.8
20260505050414 63 200 0.0 0.0 0.00 0.00 0.00 75 1011.8
20260505041355 66 200 0.0 0.0 0.00 0.00 0.00 72 1011.2
20260505040853 66 200 0.0 0.0 0.00 0.00 0.00 72 1011.1
20260505040353 66 200 0.0 0.0 0.00 0.00 0.00 71 1011.1
20260505035847 67 200 0.0 0.0 0.00 0.00 0.00 71 1011.0
20260505035346 67 200 0.0 0.0 0.00 0.00 0.00 70 1010.9
20260505034843 67 200 0.0 0.0 0.00 0.00 0.00 70 1010.8
20260505034343 68 200 0.0 0.0 0.00 0.00 0.00 70 1010.8
20260505033841 68 200 0.0 0.0 0.00 0.00 0.00 70 1010.7
20260505033338 69 200 0.0 2.6 0.00 0.00 0.00 69 1010.6
20260505032338 70 200 0.9 5.2 0.00 0.00 0.00 68 1010.4
20260505031332 70 307 0.9 3.5 0.00 0.00 0.00 67 1010.3
20260505030330 71 139 0.9 5.2 0.00 0.00 0.00 67 1010.2
20260505025827 71 158 1.7 4.3 0.00 0.00 0.00 66 1010.2
20260505025326 72 134 1.7 4.3 0.00 0.00 0.00 66 1010.1
20260505024824 72 131 0.9 4.3 0.00 0.00 0.00 66 1010.0
20260505024323 73 139 0.9 4.3 0.00 0.00 0.00 66 1010.0
20260505023323 73 148 0.9 4.3 0.00 0.00 0.00 64 1009.9
20260505022821 74 145 1.7 4.3 0.00 0.00 0.00 63 1009.9
20260505021317 75 157 0.9 4.3 0.00 0.00 0.00 62 1009.9
20260505020816 75 121 0.9 4.3 0.00 0.00 0.00 62 1009.9
20260505015311 75 146 1.7 4.3 0.00 0.00 0.00 62 1009.9
20260505014805 75 158 0.9 5.2 0.00 0.00 0.00 62 1009.9
20260505014307 75 143 1.7 5.2 0.00 0.00 0.00 62 1009.9
20260505013758 75 146 1.7 5.2 0.00 0.00 0.00 62 1010.0
20260505013258 75 167 2.6 8.7 0.00 0.00 0.00 62 1010.0
20260505012755 75 152 1.7 8.7 0.00 0.00 0.00 62 1010.0
20260505011754 75 126 2.6 5.2 0.00 0.00 0.00 61 1010.1
20260505011253 76 103 1.7 5.2 0.00 0.00 0.00 61 1010.1
20260505010245 76 120 1.7 4.3 0.00 0.00 0.00 60 1010.1
20260505005745 76 163 1.7 7.0 0.00 0.00 0.00 61 1010.2
20260505005245 76 136 1.7 7.0 0.00 0.00 0.00 60 1010.3
20260505004743 76 109 1.7 5.2 0.00 0.00 0.00 61 1010.3
20260505004243 76 162 1.7 4.3 0.00 0.00 0.00 61 1010.3
20260505003741 75 207 1.7 4.3 0.00 0.00 0.00 61 1010.3
20260505003245 74 23 2.6 7.0 0.00 0.00 0.00 62 1010.3
20260505002742 74 91 3.5 7.0 0.00 0.00 0.00 63 1010.3
20260505002239 75 124 2.6 6.1 0.00 0.00 0.00 62 1010.3
20260505001237 75 152 1.7 8.7 0.00 0.00 0.00 61 1010.4
20260505000736 74 193 2.6 7.8 0.00 0.00 0.00 61 1010.5
20260505000236 74 118 2.6 7.8 0.00 0.00 0.00 62 1010.5
20260504235738 75 114 2.6 6.1 0.00 0.00 0.00 61 1010.6
20260504235232 75 134 2.6 7.0 0.00 0.00 0.00 61 1010.6
20260504234227 75 110 1.7 6.1 0.00 0.00 0.00 62 1010.6
20260504233728 74 105 2.6 6.1 0.00 0.00 0.00 61 1010.7
20260504233221 74 139 2.6 6.1 0.00 0.00 0.00 60 1010.6
20260504232718 75 118 1.7 6.1 0.00 0.00 0.00 60 1010.6
20260504232220 74 176 1.7 6.1 0.00 0.00 0.00 60 1010.7
20260504231715 74 150 1.7 4.3 0.00 0.00 0.00 60 1010.7
20260504231215 74 128 1.7 3.5 0.00 0.00 0.00 61 1010.8
20260504230709 74 123 2.6 5.2 0.00 0.00 0.00 58 1010.8
20260504230209 74 141 1.7 5.2 0.00 0.00 0.00 60 1010.8
20260504225709 75 99 0.9 4.3 0.00 0.00 0.00 59 1010.9
20260504225209 75 131 0.9 4.3 0.00 0.00 0.00 59 1011.0
20260504224710 74 148 1.7 5.2 0.00 0.00 0.00 61 1011.0
20260504224203 73 219 1.7 5.2 0.00 0.00 0.00 62 1011.1
20260504223702 73 139 2.6 5.2 0.00 0.00 0.00 62 1011.2
20260504222700 73 139 1.7 5.2 0.00 0.00 0.00 60 1011.3
20260504222159 74 142 1.7 3.5 0.00 0.00 0.00 60 1011.3
20260504220155 73 294 0.9 4.3 0.00 0.00 0.00 61 1011.6
20260504215655 72 162 0.9 3.5 0.00 0.00 0.00 62 1011.7
20260504215157 71 143 1.7 5.2 0.00 0.00 0.00 62 1011.8
20260504214652 71 195 1.7 5.2 0.00 0.00 0.00 63 1011.8
20260504214151 71 159 0.9 3.5 0.00 0.00 0.00 63 1011.8
20260504213651 70 350 1.7 4.3 0.00 0.00 0.00 65 1011.9
20260504213149 69 142 2.6 6.1 0.00 0.00 0.00 66 1012.0
20260504212647 68 231 1.7 6.1 0.00 0.00 0.00 66 1012.1
20260504211645 68 307 1.7 5.2 0.00 0.00 0.00 66 1012.3
20260504211141 68 95 1.7 5.2 0.00 0.00 0.00 67 1012.4
20260504210137 68 150 2.6 6.1 0.00 0.00 0.00 67 1012.5
20260504205635 68 143 1.7 4.3 0.00 0.00 0.00 66 1012.6
20260504205137 68 89 1.7 4.3 0.00 0.00 0.00 68 1012.6
20260504204635 67 148 1.7 6.1 0.00 0.00 0.00 68 1012.7
20260504203633 66 173 2.6 7.0 0.00 0.00 0.00 69 1013.0
20260504202133 66 214 1.7 5.2 0.00 0.00 0.00 69 1013.1
20260504201634 65 139 1.7 4.3 0.00 0.00 0.00 70 1013.1
20260504201132 65 135 2.6 7.8 0.00 0.00 0.00 71 1013.1
20260504200625 64 134 2.6 7.8 0.00 0.00 0.00 72 1013.2
20260504200123 65 115 0.9 5.2 0.00 0.00 0.00 70 1013.3
20260504195622 64 166 1.7 5.2 0.00 0.00 0.00 73 1013.3
20260504195121 64 124 2.6 6.1 0.00 0.00 0.00 72 1013.4
20260504194115 62 129 2.6 8.7 0.00 0.00 0.00 74 1013.4
20260504193614 62 147 1.7 7.0 0.00 0.00 0.00 73 1013.4
20260504192613 61 325 2.6 5.2 0.00 0.00 0.00 77 1013.5
20260504192113 61 120 2.6 6.1 0.00 0.00 0.00 75 1013.5
20260504191613 62 89 1.7 6.1 0.00 0.00 0.00 74 1013.6
20260504191111 62 103 0.9 4.3 0.00 0.00 0.00 75 1013.6
20260504190611 61 198 1.7 4.3 0.00 0.00 0.00 76 1013.6
20260504190111 60 137 1.7 4.3 0.00 0.00 0.00 77 1013.6
20260504185111 59 158 2.6 6.1 0.00 0.00 0.00 78 1013.9
20260504184610 59 58 2.6 7.0 0.00 0.00 0.00 78 1013.9
20260504184111 59 136 2.6 7.0 0.00 0.00 0.00 78 1014.0
20260504183611 59 189 1.7 6.1 0.00 0.00 0.00 78 1013.9
20260504183053 59 143 1.7 6.1 0.00 0.00 0.00 78 1013.8
20260504182049 59 137 1.7 6.1 0.00 0.00 0.00 79 1013.7
20260504181546 58 211 1.7 6.1 0.00 0.00 0.00 79 1013.7
20260504181047 58 113 1.7 4.3 0.00 0.00 0.00 80 1013.8
20260504180545 58 113 1.7 4.3 0.00 0.00 0.00 79 1013.8
20260504180045 58 176 1.7 3.5 0.00 0.00 0.00 80 1013.8
20260504175045 57 136 1.7 6.1 0.00 0.00 0.00 81 1013.8
20260504174545 57 129 2.6 6.1 0.00 0.00 0.00 81 1013.9
20260504174045 57 125 2.6 6.1 0.00 0.00 0.00 81 1013.9
20260504173545 57 122 1.7 6.1 0.00 0.00 0.00 82 1013.9
20260504173044 56 136 3.5 7.8 0.00 0.00 0.00 82 1013.8
20260504172040 57 146 1.7 7.0 0.00 0.00 0.00 81 1013.8
20260504171537 57 165 1.7 5.2 0.00 0.00 0.00 82 1013.7
20260504171037 57 139 1.7 4.3 0.00 0.00 0.00 82 1013.7
20260504170537 56 296 0.9 3.5 0.00 0.00 0.00 82 1013.7
20260504151025 55 211 0.0 2.6 0.00 0.00 0.00 86 1013.1
20260504150523 55 186 0.9 2.6 0.00 0.00 0.00 86 1013.1
20260504141011 53 177 0.0 1.7 0.00 0.00 0.00 88 1012.5
20260504130457 54 173 0.0 0.0 0.00 0.00 0.00 85 1011.5